When you browse on this site, cookies collect data to enhance your experience and personalize the content and advertising you see.
Visit our Privacy Policy to learn more. By continuing to use the site, you agree to this use of cookies and data.
  • In Austria
  • List of Countries
  • For 7 days
  • Water Temperature
  • Satellite Maps
  • Weather Map
  • News
  • Weather Widgets
  • user-avatar
    Login

    Hourly Weather Namibe

    Today, 18 February, Monday

    Time Temperature Precipitation Wind Pressure Humidity
    00:00 +27°C° 0 mm 3 mps 758 mmHg 58%
    01:00 +27°C° 0 mm 3 mps 758 mmHg 57%
    02:00 +27°C° 0 mm 3 mps 758 mmHg 60%
    03:00 +26°C° 0 mm 3 mps 758 mmHg 62%
    04:00 +26°C° 0 mm 3 mps 757 mmHg 65%
    05:00 +26°C° 0 mm 3 mps 757 mmHg 66%
    06:00 +26°C° 0 mm 2 mps 758 mmHg 67%
    07:00 +26°C° 0 mm 2 mps 758 mmHg 69%
    08:00 +27°C° 0 mm 2 mps 758 mmHg 62%
    09:00 +29°C° 0 mm 2 mps 758 mmHg 56%
    10:00 +30°C° 0 mm 2 mps 757 mmHg 49%
    11:00 +31°C° 0 mm 3 mps 757 mmHg 49%
    12:00 +33°C° 0 mm 4 mps 756 mmHg 48%
    13:00 +34°C° 0 mm 5 mps 756 mmHg 45%
    14:00 +34°C° 0 mm 6 mps 755 mmHg 48%
    15:00 +33°C° 0 mm 6 mps 755 mmHg 51%
    16:00 +32°C° 0 mm 6 mps 754 mmHg 54%
    17:00 +30°C° 0 mm 6 mps 755 mmHg 57%
    18:00 +29°C° 0 mm 5 mps 755 mmHg 60%
    19:00 +28°C° 0 mm 5 mps 755 mmHg 63%
    20:00 +28°C° 0 mm 4 mps 756 mmHg 66%
    21:00 +27°C° 0 mm 4 mps 756 mmHg 68%
    22:00 +27°C° 0 mm 3 mps 757 mmHg 70%
    23:00 +26°C° 0 mm 3 mps 757 mmHg 72%

    Tomorrow, 19 February, Tuesday

    Time Temperature Precipitation Wind Pressure Humidity
    00:00 +26°C° 0 mm 3 mps 757 mmHg 74%
    01:00 +25°C° 0 mm 4 mps 757 mmHg 76%
    02:00 +25°C° 0 mm 3 mps 756 mmHg 77%
    03:00 +25°C° 0 mm 3 mps 756 mmHg 78%
    04:00 +25°C° 0 mm 2 mps 756 mmHg 78%
    05:00 +25°C° 0 mm 2 mps 756 mmHg 78%
    06:00 +25°C° 0 mm 2 mps 756 mmHg 78%
    07:00 +25°C° 0 mm 2 mps 756 mmHg 77%
    08:00 +26°C° 0 mm 1 mps 756 mmHg 71%
    09:00 +28°C° 0 mm 1 mps 757 mmHg 64%
    10:00 +29°C° 0 mm 1 mps 757 mmHg 58%
    11:00 +30°C° 0 mm 2 mps 756 mmHg 55%
    12:00 +33°C° 0 mm 3 mps 756 mmHg 52%
    13:00 +34°C° 0 mm 4 mps 755 mmHg 49%
    14:00 +33°C° 0 mm 4 mps 755 mmHg 55%
    15:00 +30°C° 0 mm 3 mps 754 mmHg 61%
    16:00 +29°C° 0 mm 3 mps 753 mmHg 67%
    17:00 +28°C° 0 mm 3 mps 754 mmHg 68%
    18:00 +28°C° 0 mm 2 mps 754 mmHg 69%
    19:00 +28°C° 0 mm 2 mps 754 mmHg 69%
    20:00 +28°C° 0 mm 2 mps 755 mmHg 70%
    21:00 +28°C° 0 mm 1 mps 756 mmHg 71%
    22:00 +27°C° 0 mm 1 mps 757 mmHg 71%
    23:00 +27°C° 0 mm 2 mps 757 mmHg 73%

    Day after tomorrow, 20 February, Wednesday

    Time Temperature Precipitation Wind Pressure Humidity
    00:00 +27°C° 0 mm 2 mps 756 mmHg 74%
    01:00 +26°C° 0 mm 3 mps 756 mmHg 75%
    02:00 +26°C° 0 mm 3 mps 756 mmHg 75%
    03:00 +26°C° 0 mm 3 mps 755 mmHg 76%
    04:00 +26°C° 0 mm 3 mps 755 mmHg 77%
    05:00 +26°C° 0 mm 3 mps 756 mmHg 76%
    06:00 +25°C° 0 mm 3 mps 756 mmHg 76%
    07:00 +25°C° 0 mm 2 mps 757 mmHg 76%
    08:00 +27°C° 0 mm 2 mps 757 mmHg 68%
    09:00 +29°C° 0 mm 2 mps 757 mmHg 60%
    10:00 +30°C° 0 mm 2 mps 757 mmHg 52%
    11:00 +31°C° 0 mm 3 mps 757 mmHg 51%
    12:00 +33°C° 0 mm 4 mps 756 mmHg 49%
    13:00 +33°C° 0 mm 5 mps 756 mmHg 48%
    14:00 +33°C° 0 mm 5 mps 755 mmHg 49%
    15:00 +33°C° 0 mm 5 mps 755 mmHg 50%
    16:00 +32°C° 0 mm 5 mps 755 mmHg 52%
    17:00 +30°C° 0 mm 4 mps 755 mmHg 57%
    18:00 +29°C° 0 mm 4 mps 756 mmHg 62%
    19:00 +28°C° 0 mm 3 mps 756 mmHg 67%
    20:00 +28°C° 0 mm 2 mps 757 mmHg 67%
    21:00 +28°C° 0 mm 2 mps 758 mmHg 68%
    22:00 +28°C° 0 mm 1 mps 758 mmHg 69%
    23:00 +28°C° 0 mm 1 mps 758 mmHg 69%

    21 February, Thursday

    Time Temperature Precipitation Wind Pressure Humidity
    00:00 +28°C° 0 mm 1 mps 758 mmHg 69%
    01:00 +27°C° 0 mm 1 mps 758 mmHg 69%
    02:00 +27°C° 0 mm 2 mps 757 mmHg 71%
    03:00 +27°C° 0 mm 2 mps 757 mmHg 72%
    04:00 +27°C° 0 mm 2 mps 756 mmHg 74%
    05:00 +27°C° 0 mm 2 mps 757 mmHg 74%
    06:00 +26°C° 0 mm 2 mps 757 mmHg 75%
    07:00 +26°C° 0 mm 2 mps 758 mmHg 76%
    08:00 +28°C° 0 mm 2 mps 758 mmHg 69%
    09:00 +29°C° 0 mm 2 mps 758 mmHg 62%
    10:00 +31°C° 0 mm 2 mps 758 mmHg 56%
    11:00 +33°C° 0 mm 3 mps 758 mmHg 53%
    12:00 +33°C° 0 mm 4 mps 757 mmHg 51%
    13:00 +34°C° 0 mm 5 mps 756 mmHg 49%
    14:00 +34°C° 0 mm 5 mps 756 mmHg 50%
    15:00 +33°C° 0 mm 6 mps 755 mmHg 51%
    16:00 +32°C° 0 mm 6 mps 755 mmHg 52%
    17:00 +30°C° 0 mm 5 mps 755 mmHg 57%
    18:00 +29°C° 0 mm 4 mps 756 mmHg 61%
    19:00 +28°C° 0 mm 4 mps 757 mmHg 66%
    20:00 +28°C° 0 mm 3 mps 758 mmHg 66%
    21:00 +28°C° 0 mm 2 mps 759 mmHg 66%
    22:00 +28°C° 0 mm 1 mps 759 mmHg 66%
    23:00 +28°C° 0 mm 1 mps 759 mmHg 66%

    22 February, Friday

    Time Temperature Precipitation Wind Pressure Humidity
    00:00 +28°C° 0 mm 1 mps 759 mmHg 66%
    01:00 +28°C° 0 mm 2 mps 758 mmHg 67%
    02:00 +27°C° 0 mm 2 mps 758 mmHg 69%
    03:00 +27°C° 0 mm 2 mps 758 mmHg 72%
    04:00 +27°C° 0 mm 2 mps 757 mmHg 75%
    05:00 +27°C° 0 mm 1 mps 757 mmHg 77%
    06:00 +26°C° 0 mm 1 mps 758 mmHg 79%
    07:00 +26°C° 0 mm 1 mps 758 mmHg 81%
    08:00 +27°C° 0 mm 1 mps 758 mmHg 74%
    09:00 +29°C° 0 mm 2 mps 758 mmHg 68%
    10:00 +30°C° 0 mm 3 mps 759 mmHg 61%
    11:00 +32°C° 0 mm 4 mps 758 mmHg 60%
    12:00 +32°C° 0 mm 4 mps 757 mmHg 58%
    13:00 +33°C° 0 mm 5 mps 756 mmHg 56%
    14:00 +33°C° 0 mm 5 mps 756 mmHg 57%
    15:00 +32°C° 0 mm 5 mps 755 mmHg 58%
    16:00 +32°C° 0 mm 6 mps 755 mmHg 59%
    17:00 +30°C° 0 mm 5 mps 756 mmHg 62%
    18:00 +29°C° 0 mm 4 mps 756 mmHg 65%
    19:00 +28°C° 0 mm 3 mps 757 mmHg 69%
    20:00 +28°C° 0 mm 2 mps 757 mmHg 69%
    21:00 +28°C° 0 mm 2 mps 758 mmHg 69%
    22:00 +28°C° 0 mm 1 mps 758 mmHg 70%
    23:00 +28°C° 0 mm 1 mps 758 mmHg 70%

    23 February, Saturday

    Time Temperature Precipitation Wind Pressure Humidity
    00:00 +28°C° 0 mm 1 mps 758 mmHg 70%
    01:00 +28°C° 0 mm 1 mps 757 mmHg 70%
    02:00 +27°C° 0 mm 1 mps 757 mmHg 71%
    03:00 +27°C° 0 mm 1 mps 757 mmHg 72%
    04:00 +27°C° 0 mm 1 mps 756 mmHg 72%
    05:00 +27°C° 0 mm 1 mps 756 mmHg 72%
    06:00 +25°C° 0 mm 0 mps 757 mmHg 72%
    07:00 +25°C° 0 mm 0 mps 757 mmHg 72%
    08:00 +29°C° 0 mm 1 mps 757 mmHg 64%
    09:00 +31°C° 0 mm 1 mps 757 mmHg 56%
    10:00 +32°C° 0 mm 2 mps 757 mmHg 47%
    11:00 +34°C° 0 mm 3 mps 756 mmHg 47%
    12:00 +34°C° 0 mm 4 mps 756 mmHg 46%
    13:00 +35°C° 0 mm 5 mps 755 mmHg 46%
    14:00 +34°C° 0 mm 5 mps 755 mmHg 48%
    15:00 +33°C° 0 mm 5 mps 754 mmHg 50%
    16:00 +32°C° 0 mm 5 mps 754 mmHg 53%
    17:00 +30°C° 0 mm 4 mps 755 mmHg 58%
    18:00 +29°C° 0 mm 3 mps 755 mmHg 64%
    19:00 +28°C° 0 mm 3 mps 756 mmHg 69%
    20:00 +28°C° 0 mm 2 mps 756 mmHg 71%
    21:00 +28°C° 0 mm 2 mps 757 mmHg 72%
    22:00 +28°C° 0 mm 1 mps 757 mmHg 74%
    23:00 +28°C° 0 mm 1 mps 757 mmHg 74%
    Show more